Wind_Speed
39 38 38 37 36 35 34 32 28 22 20 19 18 17 17 17 18 25 34 38 39 38 38 37 35 34 32 31 30 27 27 21 13 29 16 18 19 23 33 36 34 31 34 34 34
43 41 41 41 40 39 38 37 33 29 26 23 24 23 23 23 22 21 28 35 38 40 41 40 38 37 37 36 35 33 31 29 24 30 23 21 25 37 39 36 33 36 36 27 29
44 44 44 44 44 43 42 41 39 35 32 30 28 29 29 29 28 26 27 29 33 35 37 39 41 42 42 41 40 36 40 38 35 41 41 44 50 47 39 36 36 28 17 16 22
45 46 47 48 48 49 47 46 43 40 38 36 34 33 34 35 32 35 32 30 32 31 30 30 30 29 29 31 35 37 40 43 44 45 48 50 51 46 42 34 21 17 19 19 16
51 51 52 52 52 53 52 51 49 46 44 41 39 39 39 41 34 40 38 38 37 34 32 30 30 28 27 26 27 26 27 29 33 36 40 44 49 44 37 32 22 19 16 10 15
55 56 56 57 57 57 56 54 53 52 50 47 44 43 45 44 39 45 44 44 44 41 39 38 35 29 27 28 28 24 24 24 24 24 23 29 29 28 29 22 18 11 10 13 17
57 59 60 60 61 61 61 60 58 57 54 52 50 49 52 47 43 51 48 49 49 48 46 44 38 35 34 31 28 25 24 22 25 26 16 17 19 21 21 17 14 11 7 10 13
59 61 61 62 63 64 64 63 62 61 60 57 55 54 59 52 50 54 52 51 54 52 51 48 44 42 39 38 31 27 24 27 24 25 22 21 23 19 18 16 14 9 7 7 10
66 67 68 68 69 69 68 69 68 68 67 63 61 60 63 60 55 56 57 55 57 57 55 53 48 47 42 41 39 31 32 31 25 27 24 23 21 22 18 17 14 10 7 6 10
72 74 76 77 77 79 78 77 75 76 75 70 68 66 65 67 63 61 64 61 62 61 57 56 51 50 45 39 38 45 42 36 32 30 28 27 21 24 20 16 17 13 9 2 10
77 79 82 83 84 85 86 86 85 86 84 80 76 75 75 71 68 65 66 66 63 62 62 60 56 50 53 51 52 51 46 39 34 32 30 31 23 23 24 19 16 16 10 9 8
83 85 88 89 90 91 91 91 90 90 95 91 87 84 85 76 74 73 71 70 69 68 71 63 53 62 61 57 54 48 48 41 40 37 34 33 30 24 28 24 19 14 12 10 10
80 82 83 87 91 95 97 98 98 98 96 97 95 93 91 86 82 86 81 78 75 76 70 67 69 69 65 62 58 50 46 46 48 44 39 38 36 31 32 30 25 23 19 12 10
76 80 81 90 92 96 97 97 96 99 99 101 101 99 97 92 92 97 92 85 81 78 77 72 77 70 66 62 59 54 53 53 56 49 44 41 38 37 31 31 31 29 24 24 13
72 75 81 86 88 89 90 93 98 100 99 94 97 102 101 97 94 102 97 94 86 84 82 71 79 76 68 63 62 59 60 56 59 53 51 46 45 36 32 29 36 35 33 30 27
66 70 78 80 86 91 91 89 89 88 90 91 98 94 93 95 99 103 102 96 95 93 86 82 87 80 70 76 71 72 66 63 63 56 50 47 43 40 30 35 40 37 36 33 30
73 76 82 87 90 89 88 87 86 85 84 81 85 89 95 97 96 102 103 104 102 98 89 88 85 82 81 80 74 76 73 67 62 53 42 48 42 42 38 41 42 38 37 35 31
74 75 81 88 85 82 77 74 73 73 74 75 78 83 85 92 101 101 99 102 106 102 95 94 94 84 81 80 77 74 71 63 56 50 47 54 39 51 49 43 41 37 35 35 31
76 78 80 74 70 67 65 66 64 62 62 62 69 76 80 89 97 101 104 102 104 108 104 99 93 93 90 86 84 80 69 70 66 60 58 54 54 58 49 45 40 36 33 36 37
80 76 70 62 55 54 54 58 59 57 56 55 61 68 74 82 96 100 105 106 102 101 104 103 95 95 89 93 89 77 80 75 65 61 58 55 57 55 53 52 46 39 35 42 41
82 72 64 55 49 45 47 49 50 51 52 54 53 61 66 79 90 100 107 106 106 103 100 104 97 97 101 95 81 80 75 72 73 69 61 60 57 63 59 55 50 41 41 46 48
83 69 57 50 48 45 41 41 43 48 47 48 50 49 59 73 81 94 103 107 105 105 99 102 101 106 100 85 84 86 83 81 73 63 59 60 66 63 57 50 45 40 39 45 49
79 65 50 44 44 45 43 43 37 37 40 44 45 44 52 64 78 88 97 103 106 105 102 101 102 105 98 96 95 91 80 74 70 70 63 61 68 57 54 50 47 45 41 43 52
67 49 45 41 40 40 44 45 43 32 33 36 39 42 49 57 68 80 89 97 105 104 105 102 101 103 103 98 95 85 77 70 67 66 64 62 64 55 52 50 49 48 45 46 51
52 43 37 37 43 43 41 39 40 35 30 25 34 38 43 51 63 71 81 88 98 101 103 103 95 101 104 100 93 83 77 75 67 62 60 73 64 58 56 55 54 52 51 46 50
42 35 36 37 39 43 45 42 36 27 27 19 30 35 36 42 50 60 68 80 96 102 102 100 99 93 93 97 91 84 79 77 73 68 67 74 68 62 61 59 57 55 49 48 48
34 31 33 38 39 40 41 39 33 27 19 19 21 29 31 35 44 52 64 78 92 97 102 100 97 91 92 98 93 88 86 82 75 77 76 77 72 67 67 62 58 56 49 46 44
Wind_Direction
266 265 262 258 257 259 260 261 261 253 247 249 238 225 226 217 219 215 216 219 220 223 226 228 229 229 222 223 226 228 240 238 214 186 179 190 228 241 274 302 306 308 309 302 306
264 261 260 259 256 257 258 258 257 256 249 244 245 236 228 224 220 220 221 221 223 227 229 231 233 234 234 231 231 224 237 235 214 193 210 249 241 270 290 299 301 304 299 302 310
262 261 260 257 256 257 258 258 257 254 254 249 244 245 240 229 223 220 226 220 223 225 230 233 235 235 237 237 238 237 233 237 236 227 238 255 269 277 291 294 299 303 308 317 311
261 260 259 258 258 258 258 258 257 256 254 253 250 246 245 237 229 231 224 226 224 221 219 224 225 226 230 235 239 241 234 233 239 243 250 257 265 270 277 293 293 303 311 312 327
262 261 261 259 259 259 259 258 259 259 257 251 250 251 247 240 241 235 225 229 227 225 221 222 220 220 219 221 225 225 229 234 237 243 248 255 261 266 270 288 287 285 306 332 337
264 264 263 262 262 261 260 259 259 258 257 255 253 249 249 241 240 237 236 231 230 228 227 224 223 224 225 224 228 225 225 234 239 242 254 252 257 265 270 277 283 277 315 340 340
268 267 266 265 263 262 261 260 258 257 255 253 251 253 252 241 242 242 233 236 234 233 232 233 228 230 230 232 229 235 233 240 245 242 247 243 260 262 265 277 294 285 305 350 348
270 269 267 265 264 263 261 259 258 256 254 252 252 250 252 245 243 243 236 238 237 235 234 236 235 234 235 236 236 239 243 243 242 247 246 238 255 256 266 280 279 297 303 345 3
269 268 267 267 266 264 261 259 258 256 253 251 250 250 251 247 242 246 243 235 238 237 235 234 235 236 237 241 240 241 242 246 247 249 247 244 246 260 264 276 276 275 293 347 4
270 269 268 266 264 263 262 260 257 257 254 252 250 249 248 248 244 242 243 237 235 235 234 236 235 238 238 237 238 235 238 242 247 248 248 250 244 256 262 264 278 281 260 271 338
273 271 269 268 266 264 262 260 258 258 255 254 252 251 249 246 246 241 242 242 238 238 235 233 234 236 233 233 235 239 242 243 249 252 249 251 246 248 261 258 269 288 276 278 285
274 272 270 268 267 265 264 262 260 259 259 253 251 248 250 246 247 245 240 240 239 233 235 233 233 235 234 236 239 240 242 245 243 246 240 241 238 241 255 254 261 258 252 271 240
279 276 275 274 272 269 265 263 260 257 255 256 253 248 247 245 244 244 239 237 235 234 232 230 235 233 233 235 239 239 240 242 241 239 237 239 243 245 245 263 262 264 256 227 253
284 282 280 276 273 271 268 266 263 259 256 253 253 251 248 244 242 242 242 236 235 235 232 228 234 235 236 236 239 241 236 238 242 242 241 237 239 241 245 259 265 261 244 218 234
288 288 287 284 280 276 272 268 264 260 258 253 252 251 247 246 242 244 240 240 239 237 235 231 234 233 235 236 234 233 235 237 239 239 240 241 245 245 249 253 251 254 250 235 233
298 294 288 283 279 277 277 275 271 266 261 255 250 248 247 244 240 241 241 238 236 233 235 233 233 232 232 234 232 233 234 235 237 236 239 238 242 251 248 244 242 249 247 243 238
304 297 293 288 284 282 279 276 272 268 262 255 248 243 241 241 238 237 234 236 235 235 231 231 236 234 233 235 233 236 237 236 238 238 236 238 238 248 244 239 239 239 241 244 238
305 301 297 294 292 289 285 279 274 269 262 256 248 240 233 233 234 234 234 230 232 233 230 229 229 231 234 234 233 231 231 230 232 229 227 231 234 246 240 236 239 241 240 240 234
312 310 304 300 296 291 286 281 276 270 264 255 249 241 232 226 228 230 230 227 225 228 228 226 224 226 226 227 230 231 232 229 225 224 223 228 231 241 244 243 236 234 235 237 230
317 317 313 306 298 291 284 280 277 273 268 256 248 238 230 226 224 223 226 225 222 222 224 225 223 227 227 225 225 227 227 229 231 229 226 229 234 239 245 245 233 233 229 229 228
324 324 318 312 305 298 289 280 274 272 268 263 250 241 228 226 223 222 221 222 220 217 219 221 220 224 225 227 226 226 229 230 229 226 225 229 230 234 239 239 236 226 233 227 228
328 327 322 319 312 306 298 287 277 274 271 261 255 240 232 225 223 222 220 218 219 216 213 217 215 221 224 223 226 227 224 225 227 230 229 229 228 232 236 234 233 236 231 233 232
327 327 325 322 320 316 308 301 290 280 267 261 255 242 230 225 221 220 221 216 216 214 209 212 211 217 218 220 222 224 227 227 225 226 224 222 230 232 229 228 229 226 218 228 232
327 327 324 325 325 322 317 313 306 291 274 261 251 243 230 223 221 220 219 216 213 213 208 209 209 214 216 218 221 221 223 226 229 228 228 227 227 223 225 226 227 225 222 216 231
329 326 327 332 330 327 325 320 310 305 286 261 253 241 234 223 220 219 216 216 212 210 207 205 206 211 214 216 219 218 219 223 223 226 228 227 226 225 226 225 225 224 222 218 218
328 329 333 336 339 337 334 327 318 310 295 265 253 244 234 228 219 218 212 210 210 208 205 200 204 207 210 214 215 217 216 220 221 218 225 227 226 225 226 225 222 224 221 220 218
334 341 344 347 350 344 340 335 328 320 304 287 254 241 235 226 213 210 208 208 209 207 203 198 200 205 207 212 210 213 213 214 217 216 219 224 222 223 223 225 225 224 223 224 222
Height
10957 10958 10958 10960 10960 10961 10962 10963 10965 10968 10969 10969 10970 10971 10971 10972 10972 10972 10973 10974 10975 10978 10980 10983 10986 10989 10992 10994 10995 10999 10998 11002 11003 11000 10998 10997 10998 10999 10998 10996 10996 10994 10993 10990 10987
10949 10950 10951 10952 10953 10954 10955 10957 10959 10960 10963 10964 10964 10965 10966 10968 10969 10970 10969 10969 10971 10972 10974 10976 10980 10983 10986 10988 10990 10994 10994 10997 11001 10998 10995 10995 10993 10995 10995 10994 10993 10992 10989 10986 10983
10940 10941 10942 10943 10944 10946 10947 10948 10951 10953 10955 10957 10958 10958 10959 10961 10964 10965 10964 10965 10965 10967 10968 10970 10973 10976 10979 10981 10983 10988 10989 10990 10995 10997 10995 10992 10988 10992 10990 10991 10990 10989 10984 10982 10979
10930 10931 10931 10933 10934 10935 10937 10939 10941 10943 10947 10948 10950 10951 10951 10952 10958 10957 10959 10960 10960 10961 10962 10964 10966 10969 10971 10973 10976 10980 10982 10985 10987 10989 10991 10989 10984 10989 10987 10988 10986 10986 10982 10979 10976
10919 10919 10920 10921 10922 10924 10925 10928 10931 10933 10936 10939 10941 10941 10942 10943 10951 10948 10953 10953 10954 10955 10957 10958 10960 10963 10966 10969 10970 10973 10976 10978 10981 10983 10984 10983 10980 10983 10985 10985 10983 10982 10981 10977 10974
10908 10908 10908 10909 10909 10911 10913 10916 10918 10922 10925 10928 10930 10932 10929 10934 10940 10939 10941 10944 10946 10948 10950 10951 10954 10959 10963 10964 10965 10970 10972 10974 10976 10978 10979 10976 10976 10980 10980 10981 10981 10981 10979 10976 10973
10896 10895 10894 10895 10896 10897 10898 10901 10904 10907 10911 10915 10919 10920 10916 10924 10929 10923 10932 10933 10936 10939 10941 10943 10950 10952 10954 10957 10961 10963 10967 10969 10970 10973 10976 10973 10973 10975 10977 10977 10978 10977 10976 10975 10972
10881 10879 10879 10878 10878 10879 10881 10884 10887 10889 10893 10898 10903 10906 10897 10912 10915 10912 10922 10923 10923 10928 10933 10935 10941 10943 10947 10949 10956 10958 10961 10961 10965 10967 10972 10974 10969 10972 10973 10974 10976 10975 10974 10973 10971
10862 10861 10860 10860 10861 10860 10862 10863 10867 10869 10872 10881 10886 10888 10884 10893 10903 10903 10903 10910 10911 10914 10921 10926 10931 10933 10940 10941 10947 10951 10951 10953 10959 10960 10966 10968 10967 10965 10969 10971 10972 10972 10973 10974 10970
10842 10840 10839 10838 10838 10837 10840 10841 10848 10846 10852 10861 10866 10870 10871 10872 10882 10889 10886 10894 10895 10902 10911 10914 10920 10925 10931 10934 10933 10935 10941 10948 10951 10954 10958 10961 10964 10961 10964 10968 10968 10969 10971 10974 10971
10822 10818 10815 10814 10813 10813 10813 10818 10823 10822 10827 10838 10845 10848 10848 10858 10864 10872 10873 10877 10887 10893 10895 10900 10911 10915 10906 10915 10918 10929 10935 10942 10944 10946 10951 10953 10958 10961 10958 10966 10965 10965 10966 10969 10973
10799 10794 10787 10787 10785 10785 10786 10789 10795 10799 10793 10809 10819 10822 10822 10843 10846 10849 10855 10860 10865 10874 10874 10892 10901 10885 10897 10906 10911 10921 10927 10932 10937 10939 10943 10947 10952 10957 10954 10962 10963 10964 10961 10964 10967
10774 10769 10764 10758 10755 10753 10755 10757 10760 10762 10768 10771 10784 10794 10799 10817 10824 10814 10826 10834 10844 10848 10865 10875 10867 10876 10887 10894 10901 10911 10917 10917 10920 10927 10933 10937 10947 10950 10954 10952 10957 10959 10962 10962 10963
10749 10743 10741 10724 10725 10719 10719 10719 10723 10723 10732 10743 10745 10754 10767 10788 10791 10776 10796 10812 10824 10835 10842 10857 10850 10869 10878 10889 10892 10900 10897 10903 10909 10918 10924 10928 10934 10942 10948 10947 10950 10954 10960 10963 10964
10727 10718 10708 10699 10688 10682 10676 10677 10682 10688 10690 10708 10712 10719 10732 10750 10764 10751 10770 10789 10811 10816 10823 10849 10836 10850 10864 10873 10877 10879 10885 10892 10895 10908 10912 10920 10922 10934 10942 10948 10942 10948 10952 10958 10961
10705 10692 10673 10668 10656 10646 10642 10643 10642 10646 10648 10663 10675 10684 10695 10709 10723 10727 10743 10763 10774 10783 10805 10819 10814 10834 10853 10847 10863 10854 10870 10877 10883 10896 10907 10912 10919 10922 10938 10937 10937 10942 10945 10951 10955
10679 10664 10645 10631 10621 10614 10609 10604 10600 10602 10606 10619 10625 10639 10657 10669 10680 10686 10707 10727 10736 10757 10786 10792 10806 10820 10827 10831 10844 10844 10854 10866 10875 10890 10904 10902 10912 10912 10922 10925 10929 10936 10940 10944 10950
10653 10638 10619 10598 10587 10577 10570 10567 10564 10565 10570 10577 10586 10594 10615 10627 10638 10654 10669 10690 10708 10729 10754 10767 10771 10799 10814 10820 10828 10831 10838 10857 10868 10880 10890 10884 10907 10894 10902 10916 10923 10929 10934 10937 10942
10624 10611 10587 10570 10557 10547 10540 10532 10532 10533 10536 10543 10547 10557 10575 10591 10602 10618 10633 10650 10671 10691 10717 10734 10759 10768 10778 10796 10807 10817 10838 10839 10848 10860 10870 10883 10888 10881 10895 10905 10915 10921 10926 10927 10934
10598 10583 10560 10545 10533 10523 10515 10508 10504 10507 10507 10511 10514 10522 10537 10554 10563 10582 10594 10615 10641 10663 10689 10709 10741 10748 10768 10766 10783 10813 10812 10826 10848 10857 10867 10875 10879 10883 10887 10892 10906 10912 10920 10917 10922
10573 10557 10536 10523 10511 10505 10496 10489 10485 10483 10484 10483 10487 10495 10507 10515 10529 10544 10558 10581 10603 10633 10663 10684 10720 10731 10724 10747 10788 10796 10811 10823 10824 10836 10856 10863 10874 10862 10874 10882 10894 10907 10908 10909 10911
10549 10536 10520 10507 10493 10485 10479 10473 10468 10461 10460 10461 10462 10472 10481 10489 10506 10515 10532 10553 10579 10605 10635 10656 10695 10692 10717 10755 10767 10773 10783 10792 10812 10834 10847 10851 10846 10856 10866 10877 10888 10897 10904 10901 10901
10532 10515 10508 10497 10480 10468 10461 10451 10450 10445 10442 10439 10442 10450 10456 10465 10475 10487 10503 10529 10552 10579 10607 10630 10661 10678 10707 10718 10729 10746 10775 10796 10806 10812 10830 10836 10829 10852 10860 10868 10875 10881 10891 10895 10891
10520 10509 10495 10484 10475 10464 10450 10437 10428 10429 10425 10423 10425 10426 10433 10442 10453 10467 10482 10504 10529 10554 10581 10608 10641 10660 10684 10702 10714 10745 10767 10783 10798 10808 10818 10825 10825 10841 10849 10855 10861 10870 10878 10885 10882
10508 10498 10488 10476 10462 10453 10442 10431 10418 10412 10409 10410 10408 10410 10415 10425 10433 10445 10466 10487 10514 10536 10561 10592 10628 10635 10660 10685 10707 10735 10755 10767 10784 10801 10811 10797 10818 10828 10835 10840 10847 10855 10864 10874 10879
10501 10491 10478 10469 10459 10446 10433 10421 10410 10406 10396 10397 10395 10397 10403 10411 10424 10434 10453 10472 10486 10515 10544 10579 10601 10631 10657 10672 10698 10721 10740 10751 10768 10782 10789 10786 10801 10812 10816 10824 10833 10840 10854 10864 10870
10492 10483 10475 10465 10453 10441 10428 10416 10404 10395 10390 10385 10385 10386 10391 10399 10409 10420 10437 10455 10472 10495 10526 10562 10591 10622 10637 10649 10674 10697 10709 10725 10750 10754 10757 10765 10780 10793 10800 10812 10824 10831 10845 10857 10866